Content
SEND FEEDBACK

Daily
Averages
Monthly
Summary
United States of America

DORA, MISSOURI


Home > North America > United States > Missouri
Elevation: 980 feet     Latitude: 36 46N     Longitude: 092 13W

WEATHER
 
SELECT A DAY
Number of Records: 195,312;   Date Range: 8/15/96 - 12/18/14
 
SHARE

PRINT THIS DATA

[ ← Previous Day ]
WEATHER ALMANAC - JANUARY 6, 2013
[ Next Day → ]
[ °C ]   °F
Weather ElementAverageHighLow
Temperature33 °F42.1 °F (3:53 pm)21.9 °F (11:53 pm)
Dewpoint22 °F28.9 °F (1:53 am)16 °F (9:53 pm)
Humidity65.7 %88 % (3:53 am)40 % (3:53 pm)
Barometer30.30 in30.40 in (9:53 pm)30.19 in (2:53 am)
Wind Speed7.2 mph16.1 mph (9:53 am)
Wind Gust24.2 mph (9:53 am)
Weather ElementAverage
Visibility9.9 mi
Wind DirectionSSW (205.5 °)

Weather ElementTotal
Precipitation---
Heating Degree Days33 (Base 65)
Averaged from 20 records on January 6, 2013
WEATHER CONDITIONS BREAKOUT
WIND DIRECTION BREAKOUT
WEATHER BY HOUR - JANUARY 6, 2013
[ °C ]   °F
Local TimeTemperatureDewpointHumidityBarometerVisibilityWind DirectionWind SpeedGust SpeedPrecipitationEventsConditions
1:53 AM35.1 °F28.9 °F78 %30.20 in10.0 miNorthClear
2:53 AM34.0 °F28.9 °F82 %30.19 in10.0 miNorthClear
3:53 AM32.0 °F28.9 °F88 %30.19 in9.0 miWest (270°)9.2 mphClear
4:53 AM32.0 °F28.0 °F85 %30.19 in9.0 miWest (270°)9.2 mphClear
6:53 AM30.9 °F25.0 °F79 %30.23 in10.0 miWNW (290°)9.2 mphClear
7:53 AM30.0 °F24.1 °F79 %30.26 in10.0 miNW (310°)11.5 mph19.6 mphClear
8:53 AM30.9 °F23.0 °F72 %30.27 in10.0 miNW (310°)13.8 mph19.6 mphClear
9:53 AM33.1 °F23.0 °F66 %30.30 in10.0 miNW (320°)16.1 mph24.2 mphClear
10:53 AM36.0 °F23.0 °F59 %30.31 in10.0 miNNW (330°)13.8 mph19.6 mphClear
11:53 AM39.0 °F24.1 °F55 %30.30 in10.0 miNNW (330°)9.2 mphClear
12:53 PM41.0 °F24.1 °F51 %30.29 in10.0 miNW (310°)15.0 mphClear
1:53 PM41.0 °F23.0 °F49 %30.30 in10.0 miNNW (340°)9.2 mphClear
3:53 PM42.1 °F19.0 °F40 %30.33 in10.0 miNNW (340°)6.9 mphClear
4:53 PM37.9 °F18.0 °F45 %30.35 in10.0 miNorth (360°)3.5 mphClear
5:53 PM35.1 °F17.1 °F48 %30.36 in10.0 miNNW (330°)3.5 mphClear
6:53 PM30.9 °F17.1 °F57 %30.37 in10.0 miCalmClear
7:53 PM30.0 °F17.1 °F59 %30.39 in10.0 miCalmClear
9:53 PM25.0 °F16.0 °F69 %30.40 in10.0 miCalmClear
10:53 PM23.0 °F16.0 °F74 %30.40 in10.0 miCalmClear
11:53 PM21.9 °F16.0 °F78 %30.40 in10.0 miCalmClear
Hourly data recorded from KUNO, located miles away from Dora, Missouri







STORIES FROM OUR PARTNERS